STARLINK-34837

Last updated on Tue Sep 16 2025 00:02:07 GMT+0000 (Coordinated Universal Time)

1 65423U 25192V 25258.58341435 -.01480460 00000+0 -15605-1 0 9996 2 65423 53.1597 338.0821 0001212 67.2727 179.6758 15.66413709 3620
UTC large
Height (km)
Speed (km/s)
/
Latitude / Longitude
Inclination (degrees)
Orbital Period (minutes)
Azimuth
Elevation
Range (km)
Doppler Factor

Next 0 passes for location: London (51.5072 / 0.1276)

Sorry there are no passes over London.